Вернуться в каталог

STARLINK-5180

АктивенСвязьVLEO
NORAD 55318·PAYLOAD·🇺🇸 United States

Запущен Jan 19, 2023 с Vandenberg Space Force Base

Loading…

Ближайшие Пролёты (ближайшие 24 часа)

TLE

СвежийSource: CelesTrak SupGP

Эпоха: Sep 15, 2026, 03:04 UTC

1 55318C 23010BB  26258.12826389 -.00040356  00000+0 -33840-2 0  2587
2 55318  70.0009 246.7919 0003599 270.1893 274.4523 14.98327238    19

Отслеживайте STARLINK-5180 в реальном времени с AllMySat

Download on the App Store